METEOR 2-17 DEB, 38286

Orbit data source: Space-Track

METEOR 2-17 DEB, 38286 is space debris in LEO originally from a launch on Sat, 30 Jan 1988 UTC launched from the Plesetsk Missile And Space Complex (PKMTR). Debris objects in space refer to the collection of defunct objects orbiting the Earth. Examples of debris include non-operational satellites, rocket bodies, and fragments generated from explosions, collisions, or faulty payload assembly.

Loading next visibility...
Identifier
38286, 1988-005AP
Orbit
LEO
Country
Flag of CISCIS
Related business
Manufacturer
Unknown
Mission
Spacecraft
Bus & Motor
Unknown
Mass
Unknown
Launch date (UTC)
1988-01-30 (38 years ago)
Launch vehicle
Unknown
Launch site
Plesetsk Missile And Space Complex (PKMTR)
Object type
Payload
Rocket body
Debris
Shape & HBR
Unknown
Radar Cross Section
Small (<0.1 m²)

Expand to show TLE details & history
Last TLE update: 6 days ago

TLE from 6 days ago
0 METEOR 2-17 DEB
1 38286U 88005AP  25256.34262067  .00000619  00000-0  39254-3 0  9990
2 38286  82.5365 125.4087 0049655 336.6306  23.2607 14.01902227703784
Epoch: 2025-09-13T08:13Z
TLE epoch observation values (Epoch: 2025-09-13T08:13:22.425Z)
Latitude
Longitude
9.48791°
Altitude
857.02 km
Speed
7.441 km/s
True Right ascension
08h 21m 38s
True Declination
0° 00' 00"
Sunlit
Object was in daylight at epoch
Visualization orbit readout
Latitude
Unknown
Longitude
Unknown
Altitude
Unknown
Speed
Unknown
Apparent Right ascension
Unknown
Apparent Declination
Unknown
Sunlit
N/A
Visualization observer readout
Local Sidereal Time
14:38:51
Azimuth
Unknown
Elevation
Unknown
Doppler factor
Unknown
Orbital elements
Apogee altitude
920.405 km
Perigee altitude
848.281 km
Semi-major axis
7,262.48 km
Eccentricity
0.00497
Inclination
82.5365°
RAAN
125.4087°
Arg. of periapsis
336.6306°
True anomaly
23.4867°
Mean anomaly
23.2607°
Eccentric anomaly
23.37357°
Mean motion
3.50684 °/min
Orbital period
102.66 mins
BSTAR
0.00039254
Loading maneuver chart data...
Computing Atmospheric mass density...
Loading historical data...
Loading historical data...
Loading historical data...
Loading historical data...
Loading historical data...
Loading historical data...
Loading historical data...

Documentation

Showing up to 5 results
|